Regional Weather Roundup
Issued by NWS

Home | Current Version | Previous Version | Graphics & Text | Print | Product List | Glossary On
Versions: 1 2 3 4 5 6 7 8 9 10 11 12 13 14 15 16 17 18 19 20 21 22 23 24 25 26 27 28 29 30 31 32 33 34 35 36 37 38 39 40 41 42 43 44 45 46 47 48 49 50
322
ASUS43 KLSX 241507
RWRMO

WEATHER SUMMARY FOR MISSOURI
NATIONAL WEATHER SERVICE SPRINGFIELD MO
1000 AM CDT MON JUL 24 2017

NOTE: "FAIR" INDICATES FEW OR NO CLOUDS BELOW 12,000 FEET WITH NO
       SIGNIFICANT WEATHER AND/OR OBSTRUCTIONS TO VISIBILITY.
       CURRENT SKY AND/OR WEATHER CONDITIONS ARE NOT AVAILABLE FOR
       CHILLICOTHE AND FARMINGTON.

MOZ001>031-035>038-043-044-053-054-241600-
...NORTHERN AND WESTERN MISSOURI...

CITY           SKY/WX    TMP DP  RH WIND       PRES   REMARKS
KANSAS CTY INT PTSUNNY   77  65  66 E6        30.03S
KANSAS C DTWN  CLOUDY    77  67  71 E6        30.02R
LEE`S SUMMIT   PTSUNNY   77  66  68 NE9       30.03S
ST JOSEPH      SUNNY     77  66  68 E5        30.03S
CHILLICOTHE      N/A     76  66  71 VRB5      30.04S
KIRKSVILLE     SUNNY     76  64  66 E5        30.04S

$$
MOZ066>068-077>081-088>096-101>105-241600-
...SOUTHWEST MISSOURI...

CITY           SKY/WX    TMP DP  RH WIND       PRES   REMARKS
SPRINGFIELD    SUNNY     84  73  69 W5        30.01R HX  90
JOPLIN         SUNNY     84  75  74 CALM      30.01R HX  92
BRANSON        MOSUNNY   82  72  69 CALM      30.02R

$$
MOZ032>034-039>042-045>050-055>058-069>072-241600-
...CENTRAL MISSOURI...

CITY           SKY/WX    TMP DP  RH WIND       PRES   REMARKS
COLUMBIA       SUNNY     79  66  64 NE9       30.01S
JEFFERSON CITY SUNNY     81  68  64 E6        29.99S
ROLLA          SUNNY     79  68  69 NE8       29.99S
SEDALIA        SUNNY     80  69  69 E8        30.02S
WHITEMAN AFB   SUNNY     79  68  69 NE8       30.00S
OSAGE BEACH    SUNNY     80  70  71 NE9       30.00S

$$
MOZ051-052-059>065-241600-
...EAST CENTRAL MISSOURI...

CITY           SKY/WX    TMP DP  RH WIND       PRES   REMARKS
ST LOUIS INTL  MOSUNNY   82  65  56 N9        29.98S
SPIRIT OF STL  SUNNY     81  67  62 NE6       29.96F
ST CHARLES     SUNNY     81  66  60 N9        29.97S

$$
MOZ072>076-082>087-097>100-106>115-241600-
...SOUTH CENTRAL AND SOUTHEAST MISSOURI...

CITY           SKY/WX    TMP DP  RH WIND       PRES   REMARKS
CAPE GIRARDEAU SUNNY     84  72  67 CALM      29.94F
FARMINGTON     SUNNY     82  71  69 VRB3      29.99R
POPLAR BLUFF   MOSUNNY   83  76  79 CALM      29.95S HX  91
WEST PLAINS    SUNNY     87  67  51 E6        30.01R HX  90

$$




USA.gov is the U.S. government's official web portal to all federal, state and local government web resources and services.